Location: Val-d'Or
(48.1170°N, 77.7670°W)
Time: 06:16:48
(UTC-04:00)

ISS - Pass Details

Date: 16 May 2018
Orbit: 402 x 407 km, 51.6° (Epoch: 26 May)

Event Time Altitude Azimuth Distance (km) Brightness Sun altitude
Exits shadow 03:40:02 - 286° (WNW) 1,794 -0.8 -14.6°
Reaches altitude 10° 03:40:53 10° 290° (WNW) 1,458 -1.2 -14.5°
Maximum altitude 03:44:02 43° 4° (N) 579 -2.6 -14.2°
Drops below altitude 10° 03:47:10 10° 78° (ENE) 1,458 -0.2 -13.9°
Sets 03:49:19 0° 85° (E) 2,317 0.7 -13.7°
